This demonstration page uses our WeatherBlox Daily Observations layout. Learn more.

Left ArrowRight Arrow

36.17497, -115.13722

Hourly Observations for April 24, 2020

Temp ( °F °C ) Dew Point ( °F °C ) Humidity (%) Winds ( mph kmh ) Pressure ( in mb ) Visibility ( mi km ) Precip ( " mm )
12:53 am 00:53 Clear 76 24.4 23 -5 14 14 NNW 9 15 29.93 1014 10 16 N/A
1:53 am 01:53 Clear 74 23.3 23 -5 15 15 NNW 13 20 29.94 1014 10 16 N/A
2:53 am 02:53 Clear 73 22.8 23 -5 15 15 NNW 17 28 29.94 1014 10 16 N/A
3:53 am 03:53 Clear 73 22.8 23 -5 15 15 NNW 13 20 29.97 1015 10 16 N/A
4:53 am 04:53 Clear 72 22.2 23 -5 16 16 NW 10 17 29.98 1015 10 16 N/A
5:53 am 05:53 Clear 72 22.2 23 -5 16 16 NNW 14 22 30.01 1016 10 16 N/A
6:53 am 06:53 Sunny 71 21.7 23 -5 16 16 NNE 7 11 30.05 1018 10 16 N/A
7:53 am 07:53 Sunny 74 23.3 23 -5 15 15 ENE 13 20 30.09 1019 10 16 N/A
8:53 am 08:53 Sunny 75 23.9 23 -5 14 14 E 10 17 30.09 1019 10 16 N/A
9:53 am 09:53 Sunny 77 25 23 -5 13 13 N N/A 30.08 1019 10 16 N/A
10:53 am 10:53 Sunny 81 27.2 23 -5 12 12 N N/A 30.08 1019 10 16 N/A
11:53 am 11:53 Sunny 82 27.8 24 -4.4 12 12 E 13 20 30.07 1018 10 16 N/A
12:53 pm 12:53 Sunny 83 28.3 25 -3.9 12 12 ESE 10 17 30.04 1017 10 16 N/A
1:53 pm 13:53 Sunny 85 29.4 25 -3.9 11 11 ESE 8 13 30.02 1017 10 16 N/A
2:53 pm 14:53 Sunny 85 29.4 25 -3.9 11 11 SSE 8 13 29.99 1016 10 16 N/A
3:53 pm 15:53 Sunny 86 30 25 -3.9 11 11 N N/A 29.97 1015 10 16 N/A
4:53 pm 16:53 Sunny 86 30 25 -3.9 11 11 VRB 3 6 29.94 1014 10 16 N/A
5:53 pm 17:53 Sunny 87 30.6 26 -3.3 11 11 E 8 13 29.94 1014 10 16 N/A
6:53 pm 18:53 Sunny 84 28.9 26 -3.3 12 12 E 7 11 29.94 1014 10 16 N/A
7:53 pm 19:53 Clear 81 27.2 28 -2.2 14 14 ESE 3 6 29.95 1014 10 16 N/A
8:53 pm 20:53 Clear 80 26.7 28 -2.2 15 15 SSE 5 7 29.96 1015 10 16 N/A
9:53 pm 21:53 Clear 77 25 30 -1.1 18 18 N N/A 29.98 1015 10 16 N/A
10:53 pm 22:53 Clear 75 23.9 30 -1.1 19 19 NW 5 7 29.98 1015 10 16 N/A
11:53 pm 23:53 Clear 72 22.2 32 undefined 23 23 WNW 5 7 29.98 1015 10 16 N/A

Powered by AerisWeather